H1 CPF 1 NER 2021 11 25 9 8291 glonass138 H2 1805301 9138 43508 2021 11 25 0 0 0 2021 11 28 23 45 0 900 1 1 0 0 0 H9 10 0 59543 0.00000 0 4353780.704 -14007645.803 -20857316.142 10 0 59543 900.00000 0 5477349.155 -11608163.584 -22034918.384 10 0 59543 1800.00000 0 6834137.571 -9195718.785 -22784231.061 10 0 59543 2700.00000 0 8400993.612 -6836063.571 -23090801.876 10 0 59543 3600.00000 0 10143256.662 -4590326.757 -22948786.736 10 0 59543 4500.00000 0 12016047.104 -2512660.413 -22361054.244 10 0 59543 5400.00000 0 13965998.243 -648192.800 -21339121.619 10 0 59543 6300.00000 0 15933358.758 968628.566 -19902923.841 10 0 59543 7200.00000 0 17854378.151 2315236.227 -18080420.948 10 0 59543 8100.00000 0 19663875.987 3381636.362 -15907051.359 10 0 59543 9000.00000 0 21297888.093 4170569.521 -13425041.783 10 0 59543 9900.00000 0 22696279.574 4697133.561 -10682587.098 10 0 59543 10800.00000 0 23805215.934 4987886.311 -7732915.859 10 0 59543 11700.00000 0 24579389.403 5079467.058 -4633259.324 10 0 59543 12600.00000 0 24983907.603 5016795.966 -1443743.831 10 0 59543 13500.00000 0 24995765.833 4850928.175 1773772.226 10 0 59543 14400.00000 0 24604841.414 4636653.654 4956894.456 10 0 59543 15300.00000 0 23814368.523 4429944.477 8043898.433 10 0 59543 16200.00000 0 22640873.521 4285357.502 10974922.397 10 0 59543 17100.00000 0 21113573.229 4253502.264 13693123.758 10 0 59543 18000.00000 0 19273260.975 4378681.056 16145777.179 10 0 59543 18900.00000 0 17170726.438 4696800.938 18285293.323 10 0 59543 19800.00000 0 14864774.595 5233646.034 20070138.909 10 0 59543 20700.00000 0 12419925.700 6003583.412 21465640.611 10 0 59543 21600.00000 0 9903891.239 7008757.760 22444657.647 10 0 59543 22500.00000 0 7384930.038 8238809.840 22988110.311 10 0 59543 23400.00000 0 4929193.649 9671131.815 23085354.311 10 0 59543 24300.00000 0 2598170.529 11271650.331 22734393.602 10 0 59543 25200.00000 0 446334.470 12996106.225 21941927.230 10 0 59543 26100.00000 0 -1480905.493 14791778.916 20723228.706 10 0 59543 27000.00000 0 -3148868.939 16599584.818 19101859.449 10 0 59543 27900.00000 0 -4534812.790 18356463.255 17109220.893 10 0 59543 28800.00000 0 -5628634.759 19997950.775 14783952.989 10 0 59543 29700.00000 0 -6433042.457 21460836.520 12171189.881 10 0 59543 30600.00000 0 -6963181.477 22685787.296 9321686.414 10 0 59543 31500.00000 0 -7245738.488 23619831.688 6290832.119 10 0 59543 32400.00000 0 -7317557.769 24218598.162 3137571.676 10 0 59543 33300.00000 0 -7223830.322 24448212.010 -76746.869 10 0 59543 34200.00000 0 -7015933.045 24286770.242 -3289573.035 10 0 59543 35100.00000 0 -6749010.566 23725331.349 -6438379.762 10 0 59543 36000.00000 0 -6479403.374 22768377.363 -9461889.290 10 0 59543 36900.00000 0 -6262032.531 21433728.208 -12301274.024 10 0 59543 37800.00000 0 -6147853.001 19751911.619 -14901308.066 10 0 59543 38700.00000 0 -6181484.621 17765015.068 -17211446.229 10 0 59543 39600.00000 0 -6399121.883 15525068.113 -19186808.992 10 0 59543 40500.00000 0 -6826811.620 13092023.317 -20789054.113 10 0 59543 41400.00000 0 -7479171.824 10531420.512 -21987118.185 10 0 59543 42300.00000 0 -8358605.851 7911832.397 -22757814.146 10 0 59543 43200.00000 0 -9455045.224 5302198.022 -23086273.899 10 0 59543 44100.00000 0 -10746231.889 2769155.049 -22966228.274 10 0 59543 45000.00000 0 -12198527.993 374481.351 -22400119.750 10 0 59543 45900.00000 0 -13768219.285 -1827248.568 -21399046.552 10 0 59543 46800.00000 0 -15403257.577 -3790696.111 -19982539.819 10 0 59543 47700.00000 0 -17045369.447 -5481396.962 -18178178.634 10 0 59543 48600.00000 0 -18632443.175 -6876938.868 -16021050.619 10 0 59543 49500.00000 0 -20101094.322 -7967631.562 -13553068.558 10 0 59543 50400.00000 0 -21389302.875 -8756642.672 -10822156.289 10 0 59543 51300.00000 0 -22439011.902 -9259595.748 -7881319.410 10 0 59543 52200.00000 0 -23198579.173 -9503648.859 -4787618.576 10 0 59543 53100.00000 0 -23624979.230 -9526093.780 -1601065.148 10 0 59543 54000.00000 0 -23685663.767 -9372535.814 1616539.632 10 0 59543 54900.00000 0 -23360002.333 -9094731.691 4802799.615 10 0 59543 55800.00000 0 -22640242.839 -8748177.241 7895929.763 10 0 59543 56700.00000 0 -21531951.396 -8389546.909 10835950.015 10 0 59543 57600.00000 0 -20053912.596 -8074093.320 13565844.071 10 0 59543 58500.00000 0 -18237493.895 -7853116.646 16032660.793 10 0 59543 59400.00000 0 -16125499.972 -7771610.534 18188537.273 10 0 59543 60300.00000 0 -13770563.996 -7866183.942 19991624.098 10 0 59543 61200.00000 0 -11233142.015 -8163346.596 21406895.288 10 0 59543 62100.00000 0 -8579192.937 -8678230.675 22406827.601 10 0 59543 63000.00000 0 -5877639.501 -9413803.142 22971936.381 10 0 59543 63900.00000 0 -3197714.812 -10360602.728 23091157.638 10 0 59543 64800.00000 0 -606303.579 -11497013.809 22762068.948 10 0 59543 65700.00000 0 1834612.419 -12790067.049 21990944.514 10 0 59543 66600.00000 0 4070299.224 -14196734.667 20792642.774 10 0 59543 67500.00000 0 6055309.144 -15665667.447 19190327.919 10 0 59543 68400.00000 0 7755128.377 -17139301.910 17215029.797 10 0 59543 69300.00000 0 9147365.483 -18556250.176 14905049.728 10 0 59543 70200.00000 0 10222431.391 -19853872.830 12305222.910 10 0 59543 71100.00000 0 10983682.813 -20970926.826 9466050.906 10 0 59543 72000.00000 0 11447023.424 -21850176.818 6442720.728 10 0 59543 72900.00000 0 11639980.084 -22440859.369 3294029.420 10 0 59543 73800.00000 0 11600293.756 -22700895.266 81235.285 10 0 59543 74700.00000 0 11374085.427 -22598755.575 -3133141.185 10 0 59543 75600.00000 0 11013675.636 -22114901.573 -6286542.543 10 0 59543 76500.00000 0 10575151.067 -21242736.726 -9317600.882 10 0 59543 77400.00000 0 10115782.463 -19989029.686 -12167340.551 10 0 59543 78300.00000 0 9691404.467 -18373789.797 -14780332.698 10 0 59543 79200.00000 0 9353869.435 -16429599.925 -17105778.420 10 0 59543 80100.00000 0 9148683.873 -14200434.517 -19098498.821 10 0 59543 81000.00000 0 9112928.121 -11740012.471 -20719812.638 10 0 59543 81900.00000 0 9273547.551 -9109753.866 -21938284.526 10 0 59543 82800.00000 0 9646087.472 -6376426.133 -22730329.919 10 0 59543 83700.00000 0 10233924.991 -3609577.844 -23080665.444 10 0 59543 84600.00000 0 11028029.911 -878866.798 -22982596.978 10 0 59543 85500.00000 0 12007264.412 1748606.787 -22438140.615 10 0 59544 0.00000 0 13139208.513 4210851.703 -21457975.078 10 0 59544 900.00000 0 14381477.083 6453318.119 -20061226.572 10 0 59544 1800.00000 0 15683471.454 8430911.936 -18275092.073 10 0 59544 2700.00000 0 16988494.180 10109613.366 -16134306.895 10 0 59544 3600.00000 0 18236136.891 11467630.693 -13680468.104 10 0 59544 4500.00000 0 19364841.817 12496044.223 -10961226.394 10 0 59544 5400.00000 0 20314529.641 13198915.064 -8029362.009 10 0 59544 6300.00000 0 21029183.653 13592855.873 -4941762.336 10 0 59544 7200.00000 0 21459281.838 13706082.982 -1758320.869 10 0 59544 8100.00000 0 21563974.918 13576990.973 1459221.329 10 0 59544 9000.00000 0 21312918.809 13252310.614 4648469.446 10 0 59544 9900.00000 0 20687684.430 12784928.374 7747580.868 10 0 59544 10800.00000 0 19682685.309 12231459.830 10696460.153 10 0 59544 11700.00000 0 18305583.586 11649679.468 13437920.004 10 0 59544 12600.00000 0 16577156.706 11095915.236 15918785.968 10 0 59544 13500.00000 0 14530629.509 10622517.619 18090923.775 10 0 59544 14400.00000 0 12210498.560 10275509.764 19912169.818 10 0 59544 15300.00000 0 9670896.677 10092517.539 21347147.095 10 0 59544 16200.00000 0 6973564.529 10101066.718 22367951.228 10 0 59544 17100.00000 0 4185512.380 10317319.128 22954693.585 10 0 59544 18000.00000 0 1376467.951 10745301.388 23095891.081 10 0 59544 18900.00000 0 -1383784.815 11376659.347 22788695.093 10 0 59544 19800.00000 0 -4028066.758 12190949.484 22038954.704 10 0 59544 20700.00000 0 -6494354.589 13156456.155 20861112.521 10 0 59544 21600.00000 0 -8728116.891 14231501.525 19277934.279 10 0 59544 22500.00000 0 -10684338.435 15366194.322 17320076.541 10 0 59544 23400.00000 0 -12329148.817 16504544.835 15025499.917 10 0 59544 24300.00000 0 -13640987.787 17586857.895 12438738.249 10 0 59544 25200.00000 0 -14611258.767 18552303.410 9610037.177 10 0 59544 26100.00000 0 -15244443.396 19341556.041 6594378.391 10 0 59544 27000.00000 0 -15557672.658 19899392.213 3450408.412 10 0 59544 27900.00000 0 -15579773.173 20177134.006 239292.881 10 0 59544 28800.00000 0 -15349829.530 20134835.635 -2976480.623 10 0 59544 29700.00000 0 -14915324.293 19743118.951 -6134327.152 10 0 59544 30600.00000 0 -14329935.388 18984579.164 -9172791.455 10 0 59544 31500.00000 0 -13651085.202 17854700.327 -12032752.479 10 0 59544 32400.00000 0 -12937346.306 16362241.021 -14658580.895 10 0 59544 33300.00000 0 -12245814.691 14529073.208 -16999226.301 10 0 59544 34200.00000 0 -11629562.477 12389480.608 -19009212.371 10 0 59544 35100.00000 0 -11135278.476 9988945.739 -20649520.451 10 0 59544 36000.00000 0 -10801196.527 7382476.295 -21888344.577 10 0 59544 36900.00000 0 -10655399.056 4632540.815 -22701703.674 10 0 59544 37800.00000 0 -10714567.093 1806699.710 -23073899.751 10 0 59544 38700.00000 0 -10983228.892 -1024969.899 -22997814.057 10 0 59544 39600.00000 0 -11453538.166 -3792548.695 -22475036.251 10 0 59544 40500.00000 0 -12105590.576 -6428938.501 -21515824.928 10 0 59544 41400.00000 0 -12908264.616 -8872404.705 -20138900.895 10 0 59544 42300.00000 0 -13820551.012 -11068893.192 -18371077.686 10 0 59544 43200.00000 0 -14793314.496 -12974026.871 -16246736.759 10 0 59544 44100.00000 0 -15771413.719 -14554700.288 -13807157.587 10 0 59544 45000.00000 0 -16696090.193 -15790207.429 -11099715.599 10 0 59544 45900.00000 0 -17507525.900 -16672857.365 -8176963.351 10 0 59544 46800.00000 0 -18147462.142 -17208053.581 -5095612.479 10 0 59544 47700.00000 0 -18561769.594 -17413835.109 -1915436.017 10 0 59544 48600.00000 0 -18702861.518 -17319899.976 1301887.857 10 0 59544 49500.00000 0 -18531848.567 -16966153.038 4493968.431 10 0 59544 50400.00000 0 -18020344.384 -16400839.999 7598908.359 10 0 59544 51300.00000 0 -17151845.755 -15678346.670 10556499.671 10 0 59544 52200.00000 0 -15922628.774 -14856756.390 13309386.918 10 0 59544 53100.00000 0 -14342122.705 -13995268.495 15804175.059 10 0 59544 54000.00000 0 -12432744.900 -13151586.454 17992461.013 10 0 59544 54900.00000 0 -10229202.506 -12379385.338 19831769.249 10 0 59544 55800.00000 0 -7777288.870 -11725964.948 21286373.675 10 0 59544 56700.00000 0 -5132223.362 -11230187.058 22327990.314 10 0 59544 57600.00000 0 -2356602.220 -10920783.339 22936327.663 10 0 59544 58500.00000 0 481955.785 -10815105.141 23099484.219 10 0 59544 59400.00000 0 3313372.541 -10918367.879 22814185.412 10 0 59544 60300.00000 0 6067777.500 -11223422.269 22085855.077 10 0 59544 61200.00000 0 8678168.613 -11711062.696 20928519.491 10 0 59544 62100.00000 0 11082957.659 -12350860.577 19364545.089 10 0 59544 63000.00000 0 13228294.810 -13102488.566 17424213.981 10 0 59544 63900.00000 0 15070075.981 -13917480.647 15145144.547 10 0 59544 64800.00000 0 16575549.533 -14741354.657 12571567.408 10 0 59544 65700.00000 0 17724455.334 -15516008.083 9753470.044 10 0 59544 66600.00000 0 18509648.483 -16182286.056 6745626.255 10 0 59544 67500.00000 0 18937181.768 -16682612.701 3606529.138 10 0 59544 68400.00000 0 19025843.614 -16963573.915 397248.535 10 0 59544 69300.00000 0 18806171.479 -16978341.328 -2819764.171 10 0 59544 70200.00000 0 18318982.997 -16688833.687 -5981899.850 10 0 59544 71100.00000 0 17613487.786 -16067522.972 -9027619.161 10 0 59544 72000.00000 0 16745060.750 -15098807.580 -11897658.757 10 0 59544 72900.00000 0 15772772.121 -13779893.441 -14536191.705 10 0 59544 73800.00000 0 14756779.689 -12121144.892 -16891918.717 10 0 59544 74700.00000 0 13755694.361 -10145889.801 -18919068.328 10 0 59544 75600.00000 0 12824030.946 -7889686.562 -20578286.436 10 0 59544 76500.00000 0 12009852.097 -5399083.317 -21837398.011 10 0 59544 77400.00000 0 11352704.708 -2729921.121 -22672026.607 10 0 59544 78300.00000 0 10881935.375 54748.302 -23066060.336 10 0 59544 79200.00000 0 10615455.110 2887043.691 -23011956.098 10 0 59544 80100.00000 0 10559004.460 5696835.441 -22510876.986 10 0 59544 81000.00000 0 10705948.888 8414420.066 -21572661.049 10 0 59544 81900.00000 0 11037612.049 10973177.589 -20215622.635 10 0 59544 82800.00000 0 11524132.039 13312102.282 -18466190.690 10 0 59544 83700.00000 0 12125803.840 15378102.769 -16358391.272 10 0 59544 84600.00000 0 12794850.961 17127977.129 -13933184.401 10 0 59544 85500.00000 0 13477551.360 18529982.109 -11237668.080 10 0 59545 0.00000 0 14116627.909 19564932.432 -8324164.992 10 0 59545 900.00000 0 14653803.010 20226786.224 -5249207.769 10 0 59545 1800.00000 0 15032408.919 20522692.081 -2072446.297 10 0 59545 2700.00000 0 15199944.947 20472498.898 1144507.213 10 0 59545 3600.00000 0 15110472.901 20107748.566 4339269.286 10 0 59545 4500.00000 0 14726750.046 19470195.236 7449890.935 10 0 59545 5400.00000 0 14022009.450 18609913.827 10416054.628 10 0 59545 6300.00000 0 12981312.288 17583077.620 13180239.523 10 0 59545 7200.00000 0 11602414.585 16449498.429 15688832.521 10 0 59545 8100.00000 0 9896111.054 15270032.705 17893163.983 10 0 59545 9000.00000 0 7886040.424 14103962.254 19750448.434 10 0 59545 9900.00000 0 5607959.052 13006459.297 21224612.371 10 0 59545 10800.00000 0 3108511.572 12026241.868 22286993.576 10 0 59545 11700.00000 0 443548.155 11203517.608 22916898.715 10 0 59545 12600.00000 0 -2323943.200 10568301.947 23102008.520 10 0 59545 13500.00000 0 -5126205.019 10139181.106 22838622.740 10 0 59545 14400.00000 0 -7893282.465 9922571.879 22131739.772 10 0 59545 15300.00000 0 -10555693.595 9912509.517 20994968.910 10 0 59545 16200.00000 0 -13047087.848 10090973.023 19450276.159 10 0 59545 17100.00000 0 -15306783.039 10428734.702 17527567.582 10 0 59545 18000.00000 0 -17282075.589 10886698.744 15264117.319 10 0 59545 18900.00000 0 -18930227.942 11417672.910 12703850.412 10 0 59545 19800.00000 0 -20220050.200 11968498.854 9896493.576 10 0 59545 20700.00000 0 -21133009.631 12482451.149 6896609.932 10 0 59545 21600.00000 0 -21663821.496 12901803.292 3762536.289 10 0 59545 22500.00000 0 -21820496.377 13170451.463 555243.795 10 0 59545 23400.00000 0 -21623842.159 13236484.079 -2662855.250 10 0 59545 24300.00000 0 -21106442.081 13054587.082 -5829130.381 10 0 59545 25200.00000 0 -20311152.611 12588181.874 -8881960.951 10 0 59545 26100.00000 0 -19289185.358 11811204.002 -11761944.012 10 0 59545 27000.00000 0 -18097855.040 10709446.152 -14413057.570 10 0 59545 27900.00000 0 -16798089.541 9281407.526 -16783755.784 10 0 59545 28800.00000 0 -15451808.096 7538612.888 -18827974.129 10 0 59545 29700.00000 0 -14119278.895 5505387.077 -20506024.802 10 0 59545 30600.00000 0 -12856567.807 3218093.850 -21785365.105 10 0 59545 31500.00000 0 -11713185.773 723870.595 -22641224.236 10 0 59545 32400.00000 0 -10730033.416 -1921088.558 -23057077.033 10 0 59545 33300.00000 0 -9937728.582 -4653629.904 -23024956.278 10 0 59545 34200.00000 0 -9355386.076 -7406030.538 -22545598.356 10 0 59545 35100.00000 0 -8989899.598 -10108582.943 -21628420.239 10 0 59545 36000.00000 0 -8835754.721 -12692266.961 -20291328.933 10 0 59545 36900.00000 0 -8875379.478 -15091398.777 -18560367.563 10 0 59545 37800.00000 0 -9080016.606 -17246147.738 -16469205.261 10 0 59545 38700.00000 0 -9411079.773 -19104817.423 -14058480.820 10 0 59545 39600.00000 0 -9821935.950 -20625797.072 -11375012.832 10 0 59545 40500.00000 0 -10260038.300 -21779103.304 -8470891.442 10 0 59545 41400.00000 0 -10669319.383 -22547449.010 -5402469.107 10 0 59545 42300.00000 0 -10992743.574 -22926795.844 -2229269.752 10 0 59545 43200.00000 0 -11174910.938 -22926368.318 987162.734 10 0 59545 44100.00000 0 -11164602.655 -22568129.806 4184454.543 10 0 59545 45000.00000 0 -10917160.499 -21885743.146 7300607.526 10 0 59545 45900.00000 0 -10396599.822 -20923060.035 10275197.135 10 0 59545 46800.00000 0 -9577366.620 -19732202.890 13050539.696 10 0 59545 47700.00000 0 -8445664.119 -18371319.853 15572806.583 10 0 59545 48600.00000 0 -7000292.299 -16902107.020 17793064.033 10 0 59545 49500.00000 0 -5252963.960 -15387201.579 19668218.894 10 0 59545 50400.00000 0 -3228082.791 -13887554.760 21161852.273 10 0 59545 51300.00000 0 -961991.150 -12459894.183 22244925.453 10 0 59545 52200.00000 0 1498282.825 -11154381.373 22896344.656 10 0 59545 53100.00000 0 4096728.241 -10012562.051 23103373.907 10 0 59545 54000.00000 0 6770435.561 -9065694.622 22861887.963 10 0 59545 54900.00000 0 9451976.812 -8333526.562 22176460.127 10 0 59545 55800.00000 0 12071984.295 -7823569.892 21060282.724 10 0 59545 56700.00000 0 14561821.865 -7530906.133 19534921.006 10 0 59545 57600.00000 0 16856238.499 -7438529.069 17629904.337 10 0 59545 58500.00000 0 18895894.155 -7518211.163 15382161.611 10 0 59545 59400.00000 0 20629652.818 -7731857.312 12835310.914 10 0 59545 60300.00000 0 22016546.963 -8033288.994 10038816.407 10 0 59545 61200.00000 0 23027330.923 -8370383.395 7047028.331 10 0 59545 62100.00000 0 23645557.796 -8687476.739 3918124.604 10 0 59545 63000.00000 0 23868134.418 -8927929.515 712974.715 10 0 59545 63900.00000 0 23705330.858 -9036744.048 -2506051.352 10 0 59545 64800.00000 0 23180244.190 -8963122.400 -5676305.194 10 0 59545 65700.00000 0 22327739.403 -8662854.885 -8736088.292 10 0 59545 66600.00000 0 21192912.716 -8100436.687 -11625861.442 10 0 59545 67500.00000 0 19829142.862 -7250821.646 -14289410.770 10 0 59545 68400.00000 0 18295813.365 -6100737.797 -16674946.812 10 0 59545 69300.00000 0 16655802.699 -4649508.068 -18736114.613 10 0 59545 70200.00000 0 14972848.749 -2909340.674 -20432894.983 10 0 59545 71100.00000 0 13308898.932 -905076.230 -21732379.515 10 0 59545 72000.00000 0 11721557.536 1326598.272 -22609404.642 10 0 59545 72900.00000 0 10261737.236 3738436.170 -23047033.119 10 0 59545 73800.00000 0 8971612.634 6274365.144 -23036874.399 10 0 59545 74700.00000 0 7882960.691 8871596.466 -22579238.507 10 0 59545 75600.00000 0 7015956.276 11463022.082 -21683121.265 10 0 59545 76500.00000 0 6378471.796 13979800.246 -20366021.835 10 0 59545 77400.00000 0 5965908.733 16354022.683 -18653596.606 10 0 59545 78300.00000 0 5761566.558 18521353.095 -16579156.460 10 0 59545 79200.00000 0 5737532.120 20423528.042 -14183017.245 10 0 59545 80100.00000 0 5856050.897 22010616.924 -11511716.044 10 0 59545 81000.00000 0 6071321.446 23242947.827 -8617108.284 10 0 59545 81900.00000 0 6331636.718 24092619.891 -5555362.946 10 0 59545 82800.00000 0 6581781.508 24544539.866 -2385875.217 10 0 59545 83700.00000 0 6765584.566 24596940.419 829882.555 10 0 59545 84600.00000 0 6828517.472 24261359.240 4029549.533 10 0 59545 85500.00000 0 6720230.426 23562080.400 7151081.711 10 0 59546 0.00000 0 6396917.809 22535061.944 10133950.449 10 0 59546 900.00000 0 5823413.207 21226394.301 12920312.800 10 0 59546 1800.00000 0 4974925.680 19690355.640 15456127.105 10 0 59546 2700.00000 0 3838342.900 17987143.693 17692197.992 10 0 59546 3600.00000 0 2413045.834 16180380.007 19585126.834 10 0 59546 4500.00000 0 711199.463 14334490.180 21098151.259 10 0 59546 5400.00000 0 -1242494.089 12512069.149 22201857.623 10 0 59546 6300.00000 0 -3411571.403 10771341.018 22874752.944 10 0 59546 7200.00000 0 -5749081.940 9163818.991 23103685.391 10 0 59546 8100.00000 0 -8199309.286 7732262.561 22884105.172 10 0 59546 9000.00000 0 -10699869.595 6509016.791 22220160.504 10 0 59546 9900.00000 0 -13184101.411 5514802.781 21124626.259 10 0 59546 10800.00000 0 -15583648.799 4758009.646 19618665.968 10 0 59546 11700.00000 0 -17831131.245 4234517.504 17731430.831 10 0 59546 12600.00000 0 -19862789.668 3928058.880 15499502.582 10 0 59546 13500.00000 0 -21620998.453 3811103.236 12966190.030 10 0 59546 14400.00000 0 -23056538.497 3846227.311 10180692.146 10 0 59546 15300.00000 0 -24130535.769 3987913.257 7197143.423 10 0 59546 16200.00000 0 -24815983.676 4184698.187 4073559.878 10 0 59546 17100.00000 0 -25098784.785 4381583.573 870706.265 10 0 59546 18000.00000 0 -24978267.625 4522601.596 -2349092.830 10 0 59546 18900.00000 0 -24467156.543 4553428.589 -5523174.118 10 0 59546 19800.00000 0 -23590995.842 4423933.511 -8589764.207 10 0 59546 20700.00000 0 -22387052.681 4090552.133 -11489190.536 10 0 59546 21600.00000 0 -20902745.467 3518384.976 -14165050.112 10 0 59546 22500.00000 0 -19193664.558 2682928.963 -16565312.411 10 0 59546 23400.00000 0 -17321269.384 1571368.480 -18643334.325 10 0 59546 24300.00000 0 -15350359.519 183370.426 -20358767.202 10 0 59546 25200.00000 0 -13346426.445 -1468651.008 -21678338.421 10 0 59546 26100.00000 0 -11372997.448 -3359811.519 -22576492.667 10 0 59546 27000.00000 0 -9489082.838 -5453564.669 -23035881.148 10 0 59546 27900.00000 0 -7746832.861 -7703007.246 -23047690.031 10 0 59546 28800.00000 0 -6189501.523 -10052627.734 -22611802.568 10 0 59546 29700.00000 0 -4849801.175 -12440425.302 -21736792.610 10 0 59546 30600.00000 0 -3748715.153 -14800311.413 -20439750.277 10 0 59546 31500.00000 0 -2894816.469 -17064694.406 -18745943.710 10 0 59546 32400.00000 0 -2284119.274 -19167140.004 -16688323.771 10 0 59546 33300.00000 0 -1900467.575 -21044997.555 -14306881.393 10 0 59546 34200.00000 0 -1716443.335 -22641883.209 -11647870.038 10 0 59546 35100.00000 0 -1694754.417 -23909917.214 -8762908.214 10 0 59546 36000.00000 0 -1790042.858 -24811622.678 -5707979.183 10 0 59546 36900.00000 0 -1951036.504 -25321407.105 -2542347.137 10 0 59546 37800.00000 0 -2122952.662 -25426565.435 672589.370 10 0 59546 38700.00000 0 -2250051.950 -25127763.104 3874484.721 10 0 59546 39600.00000 0 -2278234.327 -24438979.326 7001251.298 10 0 59546 40500.00000 0 -2157567.478 -23386913.253 9992259.143 10 0 59546 41400.00000 0 -1844640.629 -22009877.984 12789507.187 10 0 59546 42300.00000 0 -1304644.242 -20356228.697 15338743.487 10 0 59546 43200.00000 0 -513087.462 -18482390.479 17590513.160 10 0 59546 44100.00000 0 542919.688 -16450567.904 19501114.070 10 0 59546 45000.00000 0 1863874.168 -14326231.612 21033442.130 10 0 59546 45900.00000 0 3437612.333 -12175486.158 22157710.296 10 0 59546 46800.00000 0 5239579.629 -10062428.229 22852027.637 10 0 59546 47700.00000 0 7233627.923 -8046604.712 23102827.435 10 0 59546 48600.00000 0 9373308.997 -6180675.837 22905136.035 10 0 59546 49500.00000 0 11603612.067 -4508380.148 22262676.966 10 0 59546 50400.00000 0 13863074.517 -3062885.683 21187807.784 10 0 59546 51300.00000 0 16086179.362 -1865595.737 19701290.171 10 0 59546 52200.00000 0 18205940.671 -925458.719 17831896.775 10 0 59546 53100.00000 0 20156569.791 -238810.823 15615861.485 10 0 59546 54000.00000 0 21876111.430 210242.191 13096182.848 10 0 59546 54900.00000 0 23308939.388 448920.410 10321793.302 10 0 59546 55800.00000 0 24408006.987 514380.784 7346609.886 10 0 59546 56700.00000 0 25136757.279 451902.862 4228484.604 10 0 59546 57600.00000 0 25470612.077 312726.599 1028075.004 10 0 59546 58500.00000 0 25397976.433 151634.610 -2192342.526 10 0 59546 59400.00000 0 24920715.698 24382.371 -5370092.847 10 0 59546 60300.00000 0 24054084.642 -14913.477 -8443330.852 10 0 59546 61200.00000 0 22826111.482 83683.302 -11352253.818 10 0 59546 62100.00000 0 21276462.868 363566.123 -14040272.736 10 0 59546 63000.00000 0 19454837.967 859503.636 -16455118.965 10 0 59546 63900.00000 0 17418959.705 1595927.402 -18549863.986 10 0 59546 64800.00000 0 15232248.147 2585662.483 -20283832.179 10 0 59546 65700.00000 0 12961274.076 3829155.236 -21623388.951 10 0 59546 66600.00000 0 10673099.855 5314231.333 -22542589.208 10 0 59546 67500.00000 0 8432618.840 7016394.615 -23023674.274 10 0 59546 68400.00000 0 6300004.192 8899654.562 -23057408.345 10 0 59546 69300.00000 0 4328372.979 10917847.966 -22643248.844 10 0 59546 70200.00000 0 2561761.923 13016399.788 -21789348.153 10 0 59546 71100.00000 0 1033497.822 15134449.997 -20512387.403 10 0 59546 72000.00000 0 -234970.972 17207257.894 -18837246.067 10 0 59546 72900.00000 0 -1234735.071 19168784.067 -16796514.090 10 0 59546 73800.00000 0 -1969550.858 20954342.725 -14429856.116 10 0 59546 74700.00000 0 -2455430.044 22503214.208 -11783240.184 10 0 59546 75600.00000 0 -2719710.898 23761109.138 -8908045.658 10 0 59546 76500.00000 0 -2799651.577 24682381.804 -5860067.502 10 0 59546 77400.00000 0 -2740605.895 25231900.659 -2698436.028 10 0 59546 78300.00000 0 -2593859.238 25386498.148 515527.118 10 0 59546 79200.00000 0 -2414216.521 25135939.464 3719494.796 10 0 59546 80100.00000 0 -2257444.343 24483369.901 6851339.098 10 0 59546 81000.00000 0 -2177675.580 23445222.136 9850331.773 10 0 59546 81900.00000 0 -2224886.146 22050587.277 12658317.352 10 0 59546 82800.00000 0 -2442550.571 20340075.761 15220836.359 10 0 59546 83700.00000 0 -2865575.520 18364215.409 17488177.207 10 0 59546 84600.00000 0 -3518598.757 16181452.996 19416336.821 10 0 59546 85500.00000 0 -4414725.766 13855842.164 20967871.697 99